Showing default

COSMOS 192, 3047

Orbit data source: Space-Track

COSMOS 192, 3047 is a payload satellite owned by OKB-10 (CIS) in LEO that was launched on Thu, 23 Nov 1967 UTC via a KOSMOS 11K65M launch vehicle from the Plesetsk Missile And Space Complex (PKMTR). Payload-class satellites include a variety of spacecraft equipped with specific instruments for various scientific and technological missions. These include communications satellites like Starlink; space stations such as the ISS; scientific satellites like the Hubble; Earth observation satellites from companies like Planet Labs, Umbra, and HawkEye 360; GPS; miniature CubeSats for education and research; and military/defense satellites.

Loading next visibility...
Identifier
3047, 1967-116A
Orbit
LEO
Country
Flag of CISCIS
Related business
Manufacturer
OKB-10
Mission
Spacecraft
Bus & Motor
KAUR-1 11F617, Unknown motor
Mass
775 kg wet, 775 kg dry
Launch date (UTC)
1967-11-23 (58 years ago)
Launch vehicle
KOSMOS 11K65M
Launch site
Plesetsk Missile And Space Complex (PKMTR)
Object type
Payload
Rocket body
Debris
Shape & HBR
Unknown
Radar Cross Section
Large (>1 m²)

Expand to show TLE details & history
Last TLE update: 13 hours ago

TLE from 13 hours ago
0 COSMOS 192
1  3047U 67116A   25308.62327757  .00000447  00000-0  10500-3 0  9996
2  3047  74.0114  83.0653 0009171 301.4535  58.5732 14.57391928 65917
Epoch: 2025-11-04T14:57Z
TLE epoch observation values (Epoch: 2025-11-04T14:57:31.182Z)
Latitude
Longitude
174.57773°
Altitude
700.862 km
Speed
7.508 km/s
True Right ascension
05h 32m 15s
True Declination
0° 00' 00"
Sunlit
Object was in full shadow at epoch
Visualization orbit readout
Latitude
Unknown
Longitude
Unknown
Altitude
Unknown
Speed
Unknown
Apparent Right ascension
Unknown
Apparent Declination
Unknown
Sunlit
N/A
Visualization observer readout
Local Sidereal Time
00:13:50
Azimuth
Unknown
Elevation
Unknown
Doppler factor
Unknown
Orbital elements
Apogee altitude
705.701 km
Perigee altitude
692.72 km
Semi-major axis
7,077.347 km
Eccentricity
0.00092
Inclination
74.0114°
RAAN
83.0653°
Arg. of periapsis
301.4535°
True anomaly
58.66293°
Mean anomaly
58.5732°
Eccentric anomaly
58.61806°
Mean motion
3.64533 °/min
Orbital period
98.76 mins
BSTAR
0.000105
Loading maneuver chart data...
Computing Atmospheric mass density...
Loading historical data...
Loading historical data...
Loading historical data...
Loading historical data...
Loading historical data...
Loading historical data...
Loading historical data...

Documentation

Showing up to 5 results
|